Regional Weather Roundup
Issued by NWS

Home | Current Version | Previous Version | Graphics & Text | Print | Product List | Glossary On
Versions: 1 2 3 4 5 6 7 8 9 10 11 12 13 14 15 16 17 18 19 20 21 22 23 24 25 26 27 28 29 30 31 32 33 34 35 36 37 38 39 40 41 42 43 44 45 46 47 48 49 50
000
ASUS43 KLOT 222008
RWRIL

ILLINOIS REGIONAL WEATHER ROUNDUP
NATIONAL WEATHER SERVICE CHICAGO/ROMEOVILLE IL
300 PM CDT FRI SEP 22 2017

NOTE: "FAIR" INDICATES FEW OR NO CLOUDS BELOW 12,000 FEET WITH NO
SIGNIFICANT WEATHER AND/OR OBSTRUCTIONS TO VISIBILITY.

* THESE STATIONS ARE NOT UNDER NWS QUALITY CONTROL. THEY ALSO MAY NOT
  REPORT WEATHER SUCH AS PRECIPITATION OR FOG.

ILZ001-002-007-009-015-016-024-222100-
NORTHWEST ILLINOIS

CITY           SKY/WX    TMP DP  RH WIND       PRES   REMARKS
MOLINE         SUNNY     93  65  39 S12G17    29.99F HX  95
STERLING*      SUNNY     94  65  38 VRB5      30.02F HX  96
SAVANNA*       SUNNY     92  68  44 SW8       30.01S HX  96
$$

ILZ003-004-008-010-011-017-018-222100-
NORTH CENTRAL ILLINOIS

CITY           SKY/WX    TMP DP  RH WIND       PRES   REMARKS
ROCKFORD       MOSUNNY   92  65  40 S13       30.03F HX  94
FREEPORT*      SUNNY     90  66  44 S13       30.04S HX  92
ROCHELLE*      SUNNY     92  65  41 SW9       30.04S HX  94
DE KALB*       SUNNY     92  65  40 SW7G18    30.05F HX  93
PERU*          MOSUNNY   92  63  38 S8        30.03F HX  92
$$

ILZ005-006-012>014-019>023-222100-
NORTHEAST ILLINOIS

CITY           SKY/WX    TMP DP  RH WIND       PRES   REMARKS
CHICAGO-OHARE  MOSUNNY   94  62  34 VRB6      30.03F HX  94
CHICAGO-MIDWAY MOSUNNY   94  66  39 SW3       30.03F HX  97
AURORA         SUNNY     93  66  40 SW6       30.04F HX  96
LANSING*       MOSUNNY   90  69  49 S5        30.05F HX  94
JOLIET*        SUNNY     94  66  39 S6        30.04S HX  96
WAUKEGAN       SUNNY     87  69  54 SE12      30.03F HX  91
DUPAGE AIRPORT SUNNY     93  64  38 SW8       30.03F HX  94
KANKAKEE*      MOSUNNY   92  69  46 SE5       30.06S HX  96
WHEELING       SUNNY     94  64  37 VRB7      30.04F HX  95
MORRIS*        SUNNY     93  65  38 S12       30.02F HX  95
ROMEOVILLE*    SUNNY     92  64  38 S8        30.04F HX  94
NORTHERLY ISL    N/A     84  68  58 E9          N/A  HX  87
$$

LMZ740>746-222100-
SOUTHERN LAKE MICHIGAN

STATION/POSITION SKY/WX   TEMP    WIND        PRES    VSBY  WAVE
                          AIR SEA DIR/SP/G                  HT/PER
                          (F)     (DEG/KT/KT) (MB)    (MI)  (FT/S)
SOUTHERN BUOY              72 70  150/  8/  8 1017.9          1
WILMETTE HARBOR            76 73  120/  8/ 10   N/A           1/ 2
HARRISON CRIB              83     120/ 17/ 17   N/A
BURNHAM HARBOR             82                   N/A
CALUMET HARBOR             91     170/  5/  9 1016.6F
BURNS HARBOR               82      40/  9/ 11 1017.9S
MICHIGAN CITY              81      30/  8/  8   N/A
MICHIGAN CITY 6N           79 77   30/  4/  6   N/A           0
ST. JOSEPH                 81 74   70/  4/  4 1017.4          0
$$

ILZ025>027-034>036-040-047-049-050-058-095>099-222100-
WEST-CENTRAL ILLINOIS

CITY           SKY/WX    TMP DP  RH WIND       PRES   REMARKS
QUINCY         SUNNY     92  65  40 S12       30.00F HX  94
GALESBURG*     MOSUNNY   91  66  43 S13       30.02F HX  94
MACOMB*        MOSUNNY   93  63  36 S8G16     30.03F HX  94
JACKSONVILLE*  MOSUNNY   93  62  34 S8G16     30.01F HX  93
PITTSFIELD*    MOSUNNY   92  65  41 S10       30.02F HX  94
$$

ILZ028>032-037-038-041>044-048-051>054-059>061-222100-
CENTRAL ILLINOIS

CITY           SKY/WX    TMP DP  RH WIND       PRES   REMARKS
PONTIAC        MOSUNNY   93  64  39 S5        30.04F HX  94
BLOOMINGTON    MOSUNNY   92  67  43 VRB7      30.05F HX  95
DECATUR        MOSUNNY   93  64  38 SW5       30.03F HX  94
PEORIA         MOSUNNY   92  66  42 SW7G20    30.02S HX  94
LACON*         SUNNY     94  65  38 SW10      30.02S HX  96
LINCOLN*       MOSUNNY   94  66  40 S3        30.02F HX  96
SPRINGFIELD    MOSUNNY   95  64  35 S6        30.02F HX  97
TAYLORVILLE    MOSUNNY   91  63  38 CALM      30.03F HX  92
$$

ILZ033-039-045-046-055>057-062-063-222100-
EAST-CENTRAL ILLINOIS

CITY           SKY/WX    TMP DP  RH WIND       PRES   REMARKS
CHAMPAIGN      MOSUNNY   92  62  36 S6        30.04F HX  92
RANTOUL*       MOSUNNY   92  67  42 S3        30.04F HX  95
MATTOON        MOSUNNY   93  66  40 VRB3      30.03F HX  96
PARIS*         MOSUNNY   91  66  43 SE5       30.04F HX  94
$$

ILZ079-100>102-222100-
SOUTHWEST ILLINOIS

CITY           SKY/WX    TMP DP  RH WIND       PRES   REMARKS
ALTON          MOSUNNY   93  68  43 S8        30.02F HX  97
BELLEVILLE     MOSUNNY   91  63  38 S8        30.00F HX  92
CAHOKIA*       MOSUNNY   97  58  27 S8        30.00F HX  96
SPARTA*        MOSUNNY   92  64  38 SE12      30.03F HX  93
$$

ILZ064>066-069>071-074>076-080>082-084>086-088>090-092>094-222100-
SOUTH-CENTRAL ILLINOIS

CITY           SKY/WX    TMP DP  RH WIND       PRES   REMARKS
CARBONDALE     SUNNY     90  67  46 VRB5      30.01F HX  93
CAIRO*         SUNNY     90  70  51 S6        30.01F HX  94
EFFINGHAM*     MOSUNNY   95  65  36 S5        30.04F HX  97
MARION         MOSUNNY   95  64  36 SE12      30.03F HX  97
MT. VERNON       N/A     94  67  41 SE8       30.02F HX  97
CENTRALIA*     MOSUNNY   94  68  42 SE5       30.01F HX  98
SALEM*         PTSUNNY   96  63  33 SW8       30.02F HX  97
METROPOLIS*    SUNNY     92  67  44 S5        30.02F HX  95
$$

ILZ067-068-072-073-078-083-087-091-222100-
SOUTHEAST ILLINOIS

CITY           SKY/WX    TMP DP  RH WIND       PRES   REMARKS
LAWRENCEVILLE  MOSUNNY   93  68  43 SE10      30.03F HX  97
FLORA*         PTSUNNY   95  67  39 SE5       30.02F HX  98
FAIRFIELD*     CLOUDY    91  66  44 E5        30.01F HX  93
HARRISBURG*    MOSUNNY   92  66  42 SE7       30.02F HX  94
ROBINSON*      MOSUNNY   92  69  45 CALM      30.04F HX  97
CARMI*         MOSUNNY   94  66  40 E9        30.01F HX  97
$$

ABBREVIATIONS USED IN REMARKS
   TC - TEMPERATURE IN CELSIUS
  WCI - WIND CHILL INDEX
   HX - HEAT INDEX
  VSB - VISIBILITY
$$




USA.gov is the U.S. government's official web portal to all federal, state and local government web resources and services.